EW5526 Weather Reports


Display with metric or nautical units.
time (UTC)temp
F
wind
direction
speed
MPH
gust
MPH
rain 1hr
in
rain 24hr
in
rain mn
in
humidity
%
barometer
mb
20260902063021 81 19 3.0 10.0 0.00 0.00 0.00 54 1020.1
20260902060021 79 5 4.0 8.0 0.00 0.00 0.00 58 1019.8
20260902053020 78 17 5.0 9.0 0.00 0.00 0.00 60 1019.5
20260902050020 77 340 3.0 10.0 0.00 0.00 0.00 60 1019.2
20260902043020 76 9 5.0 8.0 0.00 0.00 0.00 66 1019.3
20260902040020 75 355 5.0 6.0 0.00 0.00 0.00 73 1019.2
20260902030020 74 338 5.0 8.0 0.00 0.00 0.00 78 1019.3
20260902013048 75 343 5.0 9.0 0.00 0.00 0.00 83 1020.3
20260902003018 75 16 4.0 10.0 0.00 0.00 0.00 81 1020.5
20260902000047 77 310 3.0 8.0 0.00 0.00 0.00 64 1020.7
20260901233016 75 345 3.0 4.0 0.00 0.00 0.00 70 1020.7
20260901230016 74 17 2.0 4.0 0.00 0.00 0.00 83 1020.5
20260901223046 74 355 4.0 5.0 0.00 0.00 0.00 85 1020.4
20260901220045 74 26 4.0 4.0 0.00 0.00 0.00 85 1020.4
20260901213045 76 25 2.0 6.0 0.00 0.00 0.00 81 1020.5
20260901210044 77 63 1.0 3.0 0.00 0.00 0.00 79 1020.6
20260901203044 76 321 5.0 10.0 0.00 0.00 0.00 84 1020.3
20260901200044 76 301 7.0 12.0 0.00 0.00 0.00 84 1020.3
20260901193044 76 5 4.0 14.0 0.00 0.00 0.00 84 1019.8
20260901190043 77 300 4.0 11.0 0.00 0.00 0.00 81 1019.5
20260901183043 78 306 8.0 9.0 0.00 0.00 0.00 76 1019.1
20260901180044 78 305 3.0 12.0 0.00 0.00 0.00 76 1018.7
20260901173042 79 304 16.0 16.0 0.00 0.00 0.00 73 1018.3
20260901170042 81 293 8.0 12.0 0.00 0.00 0.00 69 1018.4
20260901163041 83 305 10.0 15.0 0.00 0.00 0.00 63 1018.6
20260901160041 85 325 4.0 12.0 0.00 0.00 0.00 58 1018.7
20260901153041 87 281 10.0 13.0 0.00 0.00 0.00 51 1018.7
20260901150041 89 307 8.0 14.0 0.00 0.00 0.00 45 1018.7
20260901143040 90 279 8.0 15.0 0.00 0.00 0.00 42 1018.9
20260901140040 91 5 5.0 9.0 0.00 0.00 0.00 42 1018.8
20260901133040 91 340 3.0 10.0 0.00 0.00 0.00 42 1018.8
20260901130040 92 342 5.0 9.0 0.00 0.00 0.00 43 1019.0
20260901123039 91 346 8.0 9.0 0.00 0.00 0.00 44 1019.3
20260901120039 91 316 3.0 5.0 0.00 0.00 0.00 47 1019.5
20260901113038 91 99 3.0 3.0 0.00 0.00 0.00 48 1019.4
20260901110038 90 26 3.0 6.0 0.00 0.00 0.00 51 1019.6
20260901100038 89 10 3.0 3.0 0.00 0.00 0.00 47 1019.5
20260901093038 87 40 6.0 7.0 0.00 0.00 0.00 51 1019.2
20260901090037 85 17 8.0 12.0 0.00 0.00 0.00 54 1019.0
20260901083037 83 17 12.0 12.0 0.00 0.00 0.00 58 1018.6